Date String (YYYY-MM-DD hh:mm:ss) UTC,Instrument flags,Ambient pressure (hPa),Sample flow (lpm),Bypass flow (lpm),Sample temperature (°C),Ambient temperature (°C),ASC tube jacket temperature (°C),LED temperature (°C),Box temperature (°C),Sample RH (%),Span deviation,Mass concentration (μg/m³),Mass concentration (μg/m³),Mass concentration (μg/m³)
DateTimeUTC,F1_M11,P_M11,Q1_M11,Q2_M11,T1_M11,T2_M11,T3_M11,T4_M11,T5_M11,U1_M11,ZSPAN_M11,X0_M11,X2_M11,X1_M11
2022-11-19 10:00:00,,0830.1,4.99,0.00,22.2,20.7,00.0,31.1,23.9,07.2,0000.0,0009.02,0005.35,0005.01
2022-11-19 10:01:00,,0830.0,4.99,0.00,22.1,20.5,00.0,31.1,23.9,07.2,0000.0,0008.97,0005.33,0004.99
2022-11-19 10:02:00,,0830.1,5.01,0.00,22.1,20.3,00.0,31.1,23.8,07.2,0000.0,0008.97,0005.32,0004.98
2022-11-19 10:03:00,,0830.1,5.01,0.00,22.1,20.9,00.0,31.0,23.9,07.2,0000.0,0008.94,0005.29,0004.94
2022-11-19 10:04:00,,0830.1,4.98,0.00,22.2,21.9,00.0,31.0,24.0,07.2,0000.0,0008.62,0005.20,0004.87
2022-11-19 10:05:00,,0830.1,4.99,0.00,22.3,22.2,00.0,31.0,24.2,07.1,0000.0,0007.94,0005.13,0004.79
2022-11-19 10:06:00,,0830.1,5.01,0.00,22.3,21.8,00.0,31.1,24.2,07.1,0000.0,0007.73,0005.04,0004.71
2022-11-19 10:07:00,,0830.1,5.01,0.00,22.3,21.5,00.0,31.1,24.1,07.1,0000.0,0007.65,0004.97,0004.66
2022-11-19 10:08:00,,0830.1,4.98,0.00,22.2,21.2,00.0,31.1,24.1,07.1,0000.0,0007.47,0004.87,0004.59
2022-11-19 10:09:00,,0830.1,5.01,0.00,22.2,21.0,00.0,31.1,24.0,07.1,0000.0,0007.00,0004.75,0004.50
2022-11-19 10:10:00,,0830.1,5.01,0.00,22.2,20.8,00.0,31.1,23.9,07.1,0000.0,0006.66,0004.65,0004.42
2022-11-19 10:11:00,,0830.1,4.99,0.00,22.1,20.6,00.0,31.1,23.9,07.1,0000.0,0006.72,0004.62,0004.40
2022-11-19 10:12:00,,0830.1,4.99,0.00,22.1,20.4,00.0,31.1,23.8,07.2,0000.0,0007.27,0004.59,0004.38
2022-11-19 10:13:00,,0830.1,5.01,0.00,22.0,20.4,00.0,31.1,23.8,07.2,0000.0,0007.13,0004.52,0004.33
2022-11-19 10:14:00,,0830.1,5.01,0.00,22.1,21.3,00.0,31.0,23.9,07.1,0000.0,0007.15,0004.47,0004.27
2022-11-19 10:15:00,,0830.1,4.98,0.00,22.2,22.1,00.0,31.0,24.1,07.1,0000.0,0007.24,0004.46,0004.27
2022-11-19 10:16:00,,0830.1,5.01,0.00,22.2,22.0,00.0,31.0,24.1,07.1,0000.0,0007.24,0004.47,0004.28
2022-11-19 10:17:00,,0830.1,5.00,0.00,22.2,21.5,00.0,31.1,24.1,07.1,0000.0,0007.20,0004.47,0004.30
2022-11-19 10:18:00,,0830.2,5.00,0.00,22.2,21.1,00.0,31.1,24.0,07.1,0000.0,0007.09,0004.45,0004.29
2022-11-19 10:19:00,,0830.2,4.99,0.00,22.2,20.9,00.0,31.1,23.9,07.1,0000.0,0006.97,0004.44,0004.30
2022-11-19 10:20:00,,0830.2,5.00,0.00,22.1,20.6,00.0,31.1,23.8,07.0,0000.0,0006.69,0004.46,0004.31
2022-11-19 10:21:00,,0830.1,5.01,0.00,22.1,20.4,00.0,31.0,23.7,07.1,0000.0,0006.72,0004.46,0004.30
2022-11-19 10:22:00,,0830.1,4.99,0.00,22.0,20.3,00.0,31.0,23.7,07.1,0000.0,0006.54,0004.41,0004.26
2022-11-19 10:23:00,,0830.2,5.02,0.00,22.0,21.1,00.0,31.0,23.8,07.1,0000.0,0005.76,0004.35,0004.21
2022-11-19 10:24:00,,0830.1,4.98,0.00,22.1,22.0,00.0,30.9,24.0,07.0,0000.0,0005.70,0004.32,0004.18
2022-11-19 10:25:00,,0830.1,4.99,0.00,22.2,22.0,00.0,31.0,24.1,07.0,0000.0,0005.44,0004.28,0004.15
2022-11-19 10:26:00,,0830.0,5.00,0.00,22.2,21.5,00.0,31.0,24.0,07.0,0000.0,0005.25,0004.23,0004.10
2022-11-19 10:27:00,,0830.1,4.99,0.00,22.1,21.1,00.0,31.0,23.9,06.9,0000.0,0005.07,0004.12,0004.00
2022-11-19 10:28:00,,0830.1,5.02,0.00,22.1,20.7,00.0,31.0,23.8,07.0,0000.0,0005.12,0004.07,0003.93
2022-11-19 10:29:00,,0830.1,4.99,0.00,22.0,20.4,00.0,31.0,23.7,06.9,0000.0,0005.07,0004.02,0003.87
2022-11-19 10:30:00,,0830.1,5.00,0.00,22.0,20.2,00.0,31.0,23.7,06.9,0000.0,0005.03,0003.97,0003.82
2022-11-19 10:31:00,,0830.1,5.01,0.00,22.0,20.1,00.0,31.0,23.6,07.0,0000.0,0004.96,0003.92,0003.76
2022-11-19 10:32:00,,0830.1,5.00,0.00,22.0,20.9,00.0,30.9,23.7,07.0,0000.0,0005.83,0003.87,0003.72
2022-11-19 10:33:00,,0830.1,4.99,0.00,22.1,21.9,00.0,30.9,24.0,06.9,0000.0,0005.74,0003.81,0003.67
2022-11-19 10:34:00,,0830.1,5.00,0.00,22.2,22.5,00.0,30.9,24.1,06.8,0000.0,0005.79,0003.76,0003.62
2022-11-19 10:35:00,,0830.1,4.99,0.00,22.2,22.0,00.0,31.0,24.1,06.8,0000.0,0005.94,0003.71,0003.56
2022-11-19 10:36:00,,0830.1,5.00,0.00,22.2,21.5,00.0,31.0,24.0,06.8,0000.0,0005.83,0003.65,0003.52
2022-11-19 10:37:00,,0830.1,5.01,0.00,22.1,21.1,00.0,31.0,23.9,06.8,0000.0,0005.75,0003.62,0003.49
2022-11-19 10:38:00,,0830.1,5.00,0.00,22.1,20.8,00.0,31.0,23.8,06.9,0000.0,0005.78,0003.63,0003.49
2022-11-19 10:39:00,,0830.1,4.99,0.00,22.0,20.6,00.0,31.0,23.7,06.9,0000.0,0005.60,0003.59,0003.46
2022-11-19 10:40:00,,0830.0,5.00,0.00,22.0,20.3,00.0,31.0,23.6,06.8,0000.0,0005.53,0003.57,0003.44
2022-11-19 10:41:00,,0830.0,5.01,0.00,21.9,20.1,00.0,31.0,23.6,06.8,0000.0,0005.42,0003.52,0003.40
2022-11-19 10:42:00,,0830.0,5.01,0.00,22.0,20.8,00.0,30.9,23.7,06.8,0000.0,0005.37,0003.50,0003.38
2022-11-19 10:43:00,,0830.0,4.99,0.00,22.1,21.8,00.0,30.9,23.9,06.7,0000.0,0004.60,0003.48,0003.36
2022-11-19 10:44:00,,0830.0,5.00,0.00,22.1,22.0,00.0,30.9,24.0,06.7,0000.0,0004.41,0003.50,0003.35
2022-11-19 10:45:00,,0829.9,5.00,0.00,22.1,21.5,00.0,31.0,24.0,06.7,0000.0,0004.32,0003.50,0003.35
2022-11-19 10:46:00,,0829.8,5.00,0.00,22.1,21.1,00.0,31.0,23.9,06.6,0000.0,0004.24,0003.52,0003.36
2022-11-19 10:47:00,,0829.9,4.99,0.00,22.1,20.7,00.0,31.0,23.8,06.7,0000.0,0004.34,0003.55,0003.39
2022-11-19 10:48:00,,0829.9,5.02,0.00,22.0,20.5,00.0,31.0,23.7,06.7,0000.0,0004.42,0003.59,0003.41
2022-11-19 10:49:00,,0829.8,4.99,0.00,21.9,20.2,00.0,31.0,23.6,06.7,0000.0,0004.40,0003.59,0003.43
2022-11-19 10:50:00,,0829.8,5.00,0.00,21.9,20.3,00.0,30.9,23.6,06.7,0000.0,0004.44,0003.62,0003.46
2022-11-19 10:51:00,,0829.8,5.00,0.00,22.0,21.4,00.0,30.9,23.8,06.6,0000.0,0004.47,0003.64,0003.49
2022-11-19 10:52:00,,0829.9,4.99,0.00,22.1,22.3,00.0,30.8,24.0,07.0,0000.0,0004.47,0003.63,0003.48
2022-11-19 10:53:00,,0829.9,5.00,0.00,22.2,22.4,00.0,30.9,24.1,07.4,0000.0,0005.21,0003.55,0003.40
2022-11-19 10:54:00,,0829.9,5.01,0.00,22.2,21.9,00.0,31.0,24.0,07.2,0000.0,0005.82,0003.49,0003.34
2022-11-19 10:55:00,,0829.8,5.00,0.00,22.2,21.4,00.0,31.0,23.9,06.9,0000.0,0005.71,0003.43,0003.30
2022-11-19 10:56:00,,0829.8,5.00,0.00,22.1,21.0,00.0,31.0,23.8,06.8,0000.0,0005.66,0003.41,0003.28
2022-11-19 10:57:00,,0829.9,4.99,0.00,22.1,20.7,00.0,31.0,23.8,06.7,0000.0,0005.59,0003.39,0003.27
2022-11-19 10:58:00,,0830.0,4.99,0.00,22.0,20.5,00.0,31.0,23.7,06.7,0000.0,0005.49,0003.37,0003.26
2022-11-19 10:59:00,,0830.1,5.01,0.00,22.0,20.3,00.0,31.0,23.7,06.7,0000.0,0005.41,0003.34,0003.24
